timestamp,surface_pressure_avg,surface_temp_avg,battery_voltage,lat,long
2020-02-21 00:09:01+00:00,300.163,-0.2,12.81,47.84626,-54.09684
2020-02-21 00:19:01+00:00,291.6297,-0.2,12.65,47.84626,-54.09684
2020-02-21 00:29:01+00:00,284.0564,-0.23,12.65,47.84626,-54.09684
2020-02-21 00:39:01+00:00,277.593,-0.2,12.65,47.84626,-54.09684
2020-02-21 00:49:01+00:00,268.9147,-0.28,12.65,47.84626,-54.09684
2020-02-21 00:59:01+00:00,262.8113,-0.28,12.65,47.84626,-54.09684
2020-02-21 01:09:01+00:00,263.3347,-0.24,12.65,47.84626,-54.09684
2020-02-21 01:19:01+00:00,259.2664,-0.24,12.57,47.84626,-54.09684
2020-02-21 01:29:01+00:00,248.6547,-0.3,12.57,47.84626,-54.09684
2020-02-21 01:39:01+00:00,243.7364,-0.3,12.57,47.84626,-54.09684
2020-02-21 01:49:01+00:00,243.3264,-0.3,12.57,47.84626,-54.09684
2020-02-21 01:59:01+00:00,237.3948,-0.3,12.57,47.84626,-54.09684
2020-02-21 02:09:01+00:00,229.3364,-0.3,12.57,47.84626,-54.09684
2020-02-21 02:19:01+00:00,225.4098,-0.3,12.57,47.84626,-54.09684
2020-02-21 02:29:01+00:00,223.7231,-0.3,12.57,47.84626,-54.09684
2020-02-21 02:39:01+00:00,218.9198,-0.31,12.57,47.84626,-54.09684
2020-02-21 02:49:01+00:00,216.3648,-0.3,12.57,47.84626,-54.09684
2020-02-21 02:59:01+00:00,214.3848,-0.3,12.57,47.84626,-54.09684
2020-02-21 03:09:01+00:00,209.2881,-0.31,12.57,47.84626,-54.09684
2020-02-21 03:19:01+00:00,207.9964,-0.3,12.49,47.84626,-54.09684
2020-02-21 03:29:01+00:00,210.5231,-0.3,12.49,47.84626,-54.09684
2020-02-21 03:39:01+00:00,208.7765,-0.31,12.49,47.84626,-54.09684
2020-02-21 03:49:01+00:00,201.4948,-0.32,12.49,47.84626,-54.09684
2020-02-21 03:59:01+00:00,199.5765,-0.33,12.49,47.84626,-54.09684
2020-02-21 04:09:01+00:00,204.0598,-0.36,12.49,47.84626,-54.09684
2020-02-21 04:19:01+00:00,200.4231,-0.4,12.49,47.84626,-54.09684
2020-02-21 04:29:01+00:00,194.7998,-0.4,12.49,47.84626,-54.09684
2020-02-21 04:39:01+00:00,202.2931,-0.4,12.49,47.84626,-54.09684
2020-02-21 04:49:01+00:00,204.8381,-0.4,12.49,47.84626,-54.09684
2020-02-21 04:59:01+00:00,201.9448,-0.4,12.49,47.84626,-54.09684
2020-02-21 05:09:01+00:00,207.4248,-0.4,12.49,47.84626,-54.09684
2020-02-21 05:19:01+00:00,213.7398,-0.4,12.49,47.84626,-54.09684
2020-02-21 05:29:01+00:00,211.6231,-0.4,12.49,47.84626,-54.09684
2020-02-21 05:39:01+00:00,213.7314,-0.4,12.49,47.84626,-54.09684
2020-02-21 05:49:01+00:00,220.5765,-0.4,12.49,47.84626,-54.09684
2020-02-21 05:59:01+00:00,224.8931,-0.4,12.49,47.84626,-54.09684
2020-02-21 06:09:01+00:00,233.2897,-0.4,12.49,47.84626,-54.09684
2020-02-21 06:19:01+00:00,243.6331,-0.4,12.49,47.84626,-54.09684
2020-02-21 06:29:01+00:00,245.2781,-0.4,12.49,47.84626,-54.09684
2020-02-21 06:39:01+00:00,245.1581,-0.4,12.49,47.84626,-54.09684
2020-02-21 06:49:01+00:00,257.1697,-0.4,12.49,47.84626,-54.09684
2020-02-21 06:59:01+00:00,269.4197,-0.4,12.49,47.84626,-54.09684
2020-02-21 07:09:01+00:00,271.8214,-0.4,12.49,47.84626,-54.09684
2020-02-21 07:19:01+00:00,272.7997,-0.4,12.49,47.84626,-54.09684
2020-02-21 07:29:01+00:00,281.9147,-0.4,12.49,47.84626,-54.09684
2020-02-21 07:39:01+00:00,289.3997,-0.4,12.49,47.84626,-54.09684
2020-02-21 07:49:01+00:00,292.8864,-0.5,12.49,47.84626,-54.09684
2020-02-21 07:59:01+00:00,295.1347,-0.5,12.49,47.84626,-54.09684
2020-02-21 08:09:01+00:00,302.158,-0.5,12.49,47.84626,-54.09684
2020-02-21 08:19:01+00:00,309.968,-0.5,12.49,47.84626,-54.09684
2020-02-21 08:29:01+00:00,317.3264,-0.51,12.49,47.84626,-54.09684
2020-02-21 08:39:01+00:00,323.52299999999997,-0.52,12.49,47.84626,-54.09684
2020-02-21 08:49:01+00:00,331.5363,-0.55,12.49,47.84626,-54.09684
2020-02-21 08:59:01+00:00,335.8046,-0.6,12.49,47.84626,-54.09684
2020-02-21 09:09:01+00:00,337.4263,-0.6,12.49,47.84626,-54.09684
2020-02-21 09:19:01+00:00,340.1129,-0.6,12.49,47.84626,-54.09684
2020-02-21 09:29:01+00:00,345.9346,-0.6,12.49,47.84626,-54.09684
2020-02-21 09:39:01+00:00,348.6579,-0.6,12.49,47.84626,-54.09684
2020-02-21 09:49:01+00:00,348.108,-0.6,12.49,47.84626,-54.09684
2020-02-21 09:59:01+00:00,349.2097,-0.6,12.49,47.84626,-54.09684
2020-02-21 10:09:01+00:00,355.173,-0.6,12.49,47.84626,-54.09684
2020-02-21 10:19:01+00:00,359.9396,-0.66,12.49,47.84626,-54.09684
2020-02-21 10:29:01+00:00,358.9463,-0.63,12.49,47.84626,-54.09684
2020-02-21 10:39:01+00:00,360.1678,-0.61,12.49,47.84626,-54.09684
2020-02-21 10:49:01+00:00,363.2079,-0.64,12.49,47.84626,-54.09684
2020-02-21 10:59:01+00:00,365.8129,-0.66,12.49,47.84626,-54.09684
2020-02-21 11:09:01+00:00,365.9329,-0.66,12.49,47.84626,-54.09684
2020-02-21 11:19:01+00:00,364.7112,-0.66,13.13,47.84626,-54.09684
2020-02-21 11:29:01+00:00,362.2195,-0.65,13.13,47.84626,-54.09684
2020-02-21 11:39:01+00:00,360.2612,-0.63,13.13,47.84626,-54.09684
2020-02-21 11:49:01+00:00,359.3296,-0.62,13.13,47.84626,-54.09684
2020-02-21 11:59:01+00:00,352.3646,-0.61,13.13,47.84626,-54.09684
2020-02-21 12:09:01+00:00,342.9879,-0.6,13.13,47.84626,-54.09684
2020-02-21 12:19:01+00:00,340.7614,-0.6,14.96,47.84626,-54.09684
2020-02-21 12:29:01+00:00,339.5746,-0.6,14.96,47.84626,-54.09684
2020-02-21 12:39:01+00:00,330.458,-0.6,14.96,47.84626,-54.09684
2020-02-21 12:49:01+00:00,321.6613,-0.6,14.96,47.84626,-54.09684
2020-02-21 12:59:01+00:00,313.6413,-0.6,14.96,47.84626,-54.09684
2020-02-21 13:09:01+00:00,308.368,-0.6,14.96,47.84626,-54.09684
2020-02-21 13:19:01+00:00,304.7947,-0.6,15.04,47.84626,-54.09684
2020-02-21 13:29:01+00:00,301.2413,-0.6,15.04,47.84626,-54.09684
2020-02-21 13:39:01+00:00,292.1513,-0.6,15.04,47.84626,-54.09684
2020-02-21 13:49:01+00:00,284.7798,-0.6,15.04,47.84626,-54.09684
2020-02-21 13:59:01+00:00,282.8748,-0.6,15.04,47.84626,-54.09684
2020-02-21 14:09:01+00:00,276.423,-0.6,15.04,47.84626,-54.09684
2020-02-21 14:19:01+00:00,266.3664,-0.6,14.96,47.84626,-54.09684
2020-02-21 14:29:01+00:00,259.2064,-0.57,14.96,47.84626,-54.09684
2020-02-21 14:39:01+00:00,253.9681,-0.55,14.96,47.84626,-54.09684
2020-02-21 14:49:01+00:00,245.1481,-0.52,14.96,47.84626,-54.09684
2020-02-21 14:59:01+00:00,237.8497,-0.51,14.96,47.84626,-54.09684
2020-02-21 15:09:01+00:00,236.2897,-0.52,14.96,47.84626,-54.09684
2020-02-21 15:19:01+00:00,229.2448,-0.53,14.88,47.84626,-54.09684
2020-02-21 15:29:01+00:00,216.4564,-0.52,14.88,47.84626,-54.09684
2020-02-21 15:39:01+00:00,211.9898,-0.52,14.88,47.84626,-54.09684
2020-02-21 15:49:01+00:00,213.0098,-0.52,14.88,47.84626,-54.09684
2020-02-21 15:59:01+00:00,208.4965,-0.51,14.88,47.84626,-54.09684
2020-02-21 16:09:01+00:00,204.1497,-0.51,14.88,47.84626,-54.09684
2020-02-21 16:19:01+00:00,202.3598,-0.51,14.8,47.84626,-54.09684
2020-02-21 16:29:01+00:00,197.7065,-0.51,14.8,47.84626,-54.09684
2020-02-21 16:39:01+00:00,194.4482,-0.5,14.8,47.84626,-54.09684
2020-02-21 16:49:01+00:00,197.7864,-0.5,14.8,47.84626,-54.09684
2020-02-21 16:59:01+00:00,202.0581,-0.5,14.8,47.84626,-54.09684
2020-02-21 17:09:01+00:00,203.3881,-0.5,14.8,47.84626,-54.09684
2020-02-21 17:19:01+00:00,206.2848,-0.5,14.72,47.84626,-54.09684
2020-02-21 17:29:01+00:00,206.6548,-0.5,14.72,47.84626,-54.09684
2020-02-21 17:39:01+00:00,209.8781,-0.5,14.72,47.84626,-54.09684
2020-02-21 17:49:01+00:00,217.6547,-0.5,14.72,47.84626,-54.09684
2020-02-21 17:59:01+00:00,215.2615,-0.5,14.72,47.84626,-54.09684
2020-02-21 18:09:01+00:00,215.3281,-0.48,14.72,47.84626,-54.09684
2020-02-21 18:19:01+00:00,220.9298,-0.47,14.56,47.84626,-54.09684
2020-02-21 18:29:01+00:00,221.3031,-0.44,14.56,47.84626,-54.09684
2020-02-21 18:39:01+00:00,220.6098,-0.41,14.56,47.84626,-54.09684
2020-02-21 18:49:01+00:00,221.8997,-0.4,14.56,47.84626,-54.09684
2020-02-21 18:59:01+00:00,222.2515,-0.4,14.56,47.84626,-54.09684
2020-02-21 19:09:01+00:00,225.2315,-0.39,14.56,47.84626,-54.09684
2020-02-21 19:19:01+00:00,230.3381,-0.36,14.4,47.84626,-54.09684
2020-02-21 19:29:01+00:00,236.2431,-0.32,14.4,47.84626,-54.09684
2020-02-21 19:39:01+00:00,240.4448,-0.31,14.4,47.84626,-54.09684
2020-02-21 19:49:01+00:00,242.9081,-0.3,14.4,47.84626,-54.09684
2020-02-21 19:59:01+00:00,245.4448,-0.3,14.4,47.84626,-54.09684
2020-02-21 20:09:01+00:00,252.678,-0.3,14.4,47.84626,-54.09684
2020-02-21 20:19:01+00:00,259.8081,-0.31,14.08,47.84626,-54.09684
2020-02-21 20:29:01+00:00,260.9914,-0.3,14.08,47.84626,-54.09684
2020-02-21 20:39:01+00:00,262.3247,-0.3,14.08,47.84626,-54.09684
2020-02-21 20:49:01+00:00,266.8063,-0.3,14.08,47.84626,-54.09684
2020-02-21 20:59:01+00:00,271.8631,-0.3,14.08,47.84626,-54.09684
2020-02-21 21:09:01+00:00,280.8214,-0.3,14.08,47.84626,-54.09684
2020-02-21 21:19:01+00:00,287.2964,-0.31,13.6,47.84626,-54.09684
2020-02-21 21:29:01+00:00,291.813,-0.35,13.6,47.84626,-54.09684
2020-02-21 21:39:01+00:00,298.1547,-0.38,13.6,47.84626,-54.09684
2020-02-21 21:49:01+00:00,305.2681,-0.4,13.6,47.84626,-54.09684
2020-02-21 21:59:01+00:00,308.328,-0.4,13.6,47.84626,-54.09684
2020-02-21 22:09:01+00:00,312.0147,-0.4,13.6,47.84626,-54.09684
2020-02-21 22:19:01+00:00,314.39799999999997,-0.4,13.21,47.84626,-54.09684
2020-02-21 22:29:01+00:00,320.6013,-0.4,13.21,47.84626,-54.09684
2020-02-21 22:39:01+00:00,327.2847,-0.4,13.21,47.84626,-54.09684
2020-02-21 22:49:01+00:00,331.7546,-0.4,13.21,47.84626,-54.09684
2020-02-21 22:59:01+00:00,327.613,-0.4,13.21,47.84626,-54.09684
2020-02-21 23:09:01+00:00,330.0046,-0.4,13.21,47.84626,-54.09684
2020-02-21 23:19:01+00:00,331.4346,-0.4,12.81,47.84626,-54.09684
2020-02-21 23:29:01+00:00,331.4179,-0.4,12.81,47.84626,-54.09684
2020-02-21 23:39:01+00:00,329.8747,-0.4,12.81,47.84626,-54.09684
2020-02-21 23:49:01+00:00,328.1047,-0.4,12.81,47.84626,-54.09684
2020-02-21 23:59:01+00:00,324.003,-0.4,12.81,47.84626,-54.09684
